BEIDOU-3 M5 (C21)

Last updated on Aug. 15, 2020, 5:35 a.m. UTC

1 43207U 18018A   20226.89064818 -.00000028  00000-0  00000+0 0  9990
2 43207  55.1929 134.4063 0007097 338.1786  21.8176  1.86231848 17014
UTC
Height (km)
Latitude
Longitude
Inclination
Orbital Period
UTC large
Height (km)
Speed (km/s)
/
Latitude / Longitude
Inclination (degrees)
Orbital Period (minutes)
Azimuth
Elevation
Range (km)
Doppler Factor
iOS Compass Heading
iOS Angle

Next 30 passes for location: Hong Kong

Rise time Rise Azimuth (degrees) Set time Set Azimuth (degrees) Duration Max altitude (degrees)

No matching passes for this satellites